Other Public Products
Issued by NWS Grand Forks, ND

Home | Current Version | Previous Version | Text Only | Print | Product List | Glossary Off
Versions: 1 2 3 4 5 6 7 8 9 10 11 12 13 14 15 16 17 18 19 20 21 22 23 24 25 26 27 28 29 30 31 32 33 34 35 36 37 38 39 40 41 42 43 44 45 46 47 48 49 50

000
FPUS83 KFGF 021731
OPUFGF
PRAIRIE TO PINES WEATHER ROUNDUP
NATIONAL WEATHER SERVICE EASTERN NORTH DAKOTA/GRAND FORKS ND
1200 PM CDT MON MAY 02 2016

 **SATELLITE DATA USED TO AUGMENT SKY COVER AT AUTOMATED STATIONS**
 *****  WEATHER ACROSS EASTERN NORTH DAKOTA  *****

CITY           SKY/WX    TMP DP  RH WIND       PRES   REMARKS
GRAND FORKS    MOSUNNY   66  30  26 SE7       30.01S
GRAND FORKS AF SUNNY     66  30  26 E9        30.01F
GRAND CITY NWS NOT AVBL
BUXTON           N/A     68  33  28 NE2         N/A
DEVILS LAKE    MOSUNNY   61  37  41 S9        30.02S
FARGO          SUNNY     66  29  24 VRB3      30.02S
WAHPETON ARPT  MOSUNNY   64  28  25 SW9       30.03F
$$

 *****  WEATHER ACROSS CENTRAL AND WESTERN NORTH DAKOTA  *****

CITY           SKY/WX    TMP DP  RH WIND       PRES   REMARKS
JAMESTOWN      CLOUDY    55  44  66 S13       30.02S
BISMARCK       MOSUNNY   56  45  66 SE13      30.01F
MINOT          SUNNY     68  38  33 NE12      29.99R
MINOT AFB      SUNNY     64  40  41 NE13      29.98R
GARRISON         N/A     63  40  42 NE9G17    29.97R
WILLISTON      SUNNY     68  36  30 N14       30.02F
DICKINSON      PTSUNNY   63  35  35 NW22G30   29.99F
HETTINGER      LGT RAIN  62  34  35 NW23G32   30.03F
$$

 *****  OTHER OBSERVATIONS NORTHEAST NORTH DAKOTA  *****

CITY           SKY/WX    TMP DP  RH WIND       PRES   REMARKS
WALHALLA       FAIR      64  36  34 NE8       30.02F
LANGDON        PTSUNNY   63  34  34 CALM      30.03S
CAVALIER       FAIR      66  36  32 NE6       30.02S
GRAFTON        FAIR      66  32  28 SE12      30.03S
CANDO          FAIR      63  36  36 SE17G23   30.04S
FORT TOTTEN      N/A     61  40  46 S7        29.95S
ROLLA          FAIR      61  34  36 E12G18    30.03S
RUGBY          FAIR      59  41  51 S3        30.00S
 ***** THE ABOVE OBSERVATIONS ARE NON NWS ARE NOT QUALITY
        CONTROLLED AND MAY MIS-REPORT RAIN FOR SNOW...
$$

 *****  OTHER OBSERVATIONS SOUTHEAST NORTH DAKOTA *****

CITY           SKY/WX    TMP DP  RH WIND       PRES   REMARKS
COOPERSTOWN    NOT AVBL
VALLEY CITY    FAIR      61  39  44 SW8       30.05S
OAKES            N/A    N/A N/A N/A MISG        N/A
GWINNER        FAIR      64  32  29 CALM      30.02F
SHEYENNE NWR     N/A     69  33  26 S3        29.95S
BUFFALO          N/A     66  33  28 W3          N/A
WYNDMERE         N/A     66  28  24 SW7         N/A
 ***** THE ABOVE OBSERVATIONS ARE NON NWS ARE NOT QUALITY
       CONTROLLED AND MAY MIS-REPORT RAIN FOR SNOW...
$$

  *****  WEATHER ACROSS NORTHERN MINNESOTA  *****

CITY           SKY/WX    TMP DP  RH WIND       PRES   REMARKS
FLAG ISLAND    SUNNY     52  34  50 SE5       30.05S
WARROAD        SUNNY     57  37  47 NE12      30.05F
ROSEAU         SUNNY     64  25  22 E5        30.04S
HALLOCK        SUNNY     66  25  20 SW3       30.01S
THF RVR FALLS  MOSUNNY   64  27  24 CALM      30.04F
HALSTAD        NOT AVBL
FOSSTON        MOSUNNY   64  34  32 CALM      30.04S
BAUDETTE       SUNNY     63  26  24 VRB3      30.06S
WASKISH        SUNNY     63  32  31 W6        30.06S
CROOKSTON      SUNNY     66  28  24 E8        30.02F
$$
  *****  WEATHER ACROSS CENTRAL AND WEST MINNESOTA  *****

CITY           SKY/WX    TMP DP  RH WIND       PRES   REMARKS
BEMIDJI        SUNNY     63  29  27 E8G17     30.05S
PARK RAPIDS    SUNNY     64  25  22 CALM      30.04F
WADENA         PTSUNNY   63  34  34 CALM      30.04F
DETROIT LAKES  SUNNY     63  30  29 CALM      30.05S
MOORHEAD       SUNNY     64  28  25 W7        30.03S
FERGUS FALLS   MOSUNNY   63  34  34 W5        30.02S
ELBOW LAKE     FAIR      63  32  31 SW5       30.05F
MORRIS MN      SUNNY     66  34  30 SW9       30.04F
STAPLES        SUNNY     63  25  23 CALM      30.05S
WHEATON        MOSUNNY   66  34  30 CALM      30.05F
$$
  *****  WEATHER ELSEWHERE ACROSS MINNESOTA  *****

CITY           SKY/WX    TMP DP  RH WIND       PRES   REMARKS
DULUTH         MOSUNNY   59  33  37 S8        30.08F
INTRNTL FALLS  SUNNY     61  31  32 E8        30.06F
ELY            SUNNY     59  27  29 NE5       30.06F
CLOQUET        PTSUNNY   61  28  29 NE3       30.08S
BRAINERD       PTSUNNY   59  29  31 W6        30.07F
HIBBING        SUNNY     59  31  34 W6        30.07F
ALEXANDRIA     MOSUNNY   60  28  29 W6        30.07S
SAINT CLOUD    SUNNY     61  31  32 CALM      30.08F
MINNEAPOLIS    SUNNY     62  30  29 CALM      30.09F
$$

  *****  WEATHER ACROSS SOUTH DAKOTA  *****

CITY           SKY/WX    TMP DP  RH WIND       PRES   REMARKS
SIOUX FALLS    PTSUNNY   59  38  45 NW10      30.10F
BROOKINGS      NOT AVBL
WATERTOWN      MOSUNNY   61  31  32 VRB7      30.06F
HURON          PTSUNNY   61  39  44 MISG      30.07F
SISSETON         N/A     64  29  26 VRB3      30.03F
ABERDEEN       PTSUNNY   63  38  39 S10       30.04F
MITCHELL       PTSUNNY   61  42  49 CALM      30.10F
PIERRE         PTSUNNY   60  43  53 W7        30.04F
MOBRIDGE       LGT RAIN  49  45  86 NE3       30.04F
RAPID CITY     PTSUNNY   60  33  36 NW10G21   30.10F
$$

  *****  SOME WEATHER IN NEARBY STATES *****

CITY           SKY/WX    TMP DP  RH WIND       PRES   REMARKS
GLASGOW MT     SUNNY     65  40  39 NW14      30.10F
GREAT FALLS MT NOT AVBL
CHEYENNE WY    SUNNY     48  18  30 VRB5      30.21F
SCOTTSBLUFF NE SUNNY     55  35  47 W12       30.19F
OMAHA NE       MOSUNNY   60  43  53 VRB3      30.13S
DES MOINES IA  PTSUNNY   61  42  49 VRB3      30.11S
DAVENPORT IA   CLOUDY    56  41  57 NE13      30.09S
CHICAGO IL     PTSUNNY   55  36  48 NE17      30.05S
EAU CLAIRE WI  SUNNY     61  33  35 S6        30.09F
LA CROSSE WI   SUNNY     61  35  37 S7        30.10F
$$

  *****  SOME NATIONAL WEATHER *****

CITY           SKY/WX    TMP DP  RH WIND       PRES   REMARKS
LA GUARDIA NY  CLOUDY    54  47  77 S6        29.94F
RALEIGH NC     PTSUNNY   81  69  67 SW8       29.99F
ATLANTA GA     MOSUNNY   81  63  54 SW9G21    30.02S
NEW ORLEANS LA CLOUDY    78  72  81 W6        30.01S
OKLAHOMA CITY  CLOUDY    55  43  63 N16G23    30.19S
ALBUQUERQUE NM PTSUNNY   48  31  51 NE6       30.30F
SALT LAKE CITY MOSUNNY   60  28  29 CALM      30.19F
LOS ANGELES CA MOSUNNY   63  54  72 W7        30.05S
BOISE ID       SUNNY     65  32  29 SE14G20   30.18S
SEATTLE WA     MOSUNNY   70  51  51 W6        29.98S
$$

*** WEATHER ACROSS MANITOBA...SASKATCHEWAN AND ONTARIO ***
                ***ONTARIO***

CITY           SKY/WX    TMP DP  RH WIND       PRES   REMARKS
GERALDTON      MOSUNNY   57  32  38 NW8       30.04F
THUNDER BAY    MOSUNNY   59  32  36 E8        30.07F
SIOUX LOOKOUT  MOSUNNY   63  32  31 W7        30.04F
TORONTO        PTSUNNY   48  39  71 N8        30.00S
BIG TROUT LK   MOSUNNY   64  32  29 W13       29.88F
PICKLE LAKE    PTSUNNY   63  30  29 W6        29.98F
DRYDEN         SUNNY     63  28  27 SW12      30.04F
KENORA         MOSUNNY   63  28  27 S9        30.05
$$
                *** MANITOBA***

CITY           SKY/WX    TMP DP  RH WIND       PRES   REMARKS
BRANDON        MOSUNNY   61  41  48 NE3       30.03S
DAUPHIN        SUNNY     61  46  59 VRB3      30.03F
ISLAND LAKE    CLOUDY    59  36  41 W9        29.92F
PILOT MOUND      N/A     59  34  38 SE8         N/A
THE PAS        PTSUNNY   63  39  42 W10       29.99F
THOMPSON       PTSUNNY   68  36  30 W16G24    29.80F
WINNIPEG       SUNNY     64  32  29 VRB3      30.03S
LYNN LAKE      SUNNY     59  27  29 N17G23    29.90S
CHURCHILL      PTSUNNY   50  37  62 S9        29.65F
GILLAM         PTSUNNY   59  41  51 W12       29.73F
$$
                ***SASKATCHEWAN***

CITY           SKY/WX    TMP DP  RH WIND       PRES   REMARKS
ESTEVAN        PTSUNNY   68  32  26 NE14      30.02R
KINDERSLEY     MOSUNNY   72  36  26 NW6       30.07F
LLOYDMINSTER   MOSUNNY   75  37  25 CALM      30.06S
PRINCE ALBERT  CLOUDY    68  34  28 SW5       30.03F
REGINA         MOSUNNY   68  30  24 E3        30.04F
YORKTON        SUNNY     63  34  34 VRB6      30.03F  C1F1C2F2C3F3C4F4C5F5C6F6C7F7C8F8C9F9CaFaCbFbCcFcCdFdCe!



USA.gov is the U.S. government's official web portal to all federal, state and local government web resources and services.